Change the Weather History Date:

Tuesday, July 9, 2013

  Actual Average Record
Temperature  
Mean Temperature 80 °F -  
Max Temperature 87 °F 85 °F 97 °F (2012)
Min Temperature 73 °F 68 °F 61 °F (2006)
Cooling Degree Days 14    
Growing Degree Days 30 (Base 50)    
Moisture  
Dew Point 73 °F    
Average Humidity 81    
Maximum Humidity 97    
Minimum Humidity 63    
Precipitation  
Precipitation 0.05 in - - ()
Sea Level Pressure  
Sea Level Pressure 30.17 in    
Wind  
Wind Speed 5 mph (South)    
Max Wind Speed 14 mph    
Max Gust Speed 20 mph    
Visibility 10 miles    
Events Rain , Thunderstorm    
Averages and records for this station are not official NWS values.
T = Trace of Precipitation, MM = Missing Value Source: NWS Daily Summary

Daily Weather History Graph

Daily Weather History Graph

Search for Another Location

Airport or City:

Trip Planner

Search our weather history database for the weather conditions in past years. The results will help you decide how hot, cold, wet, or windy it might be!

Date:

Astronomy

Jul. 09, 2013 Rise Set
Actual Time 6:04 AM EDT 8:25 PM EDT
Civil Twilight 5:35 AM EDT 8:54 PM EDT
Nautical Twilight 4:59 AM EDT 9:30 PM EDT
Astronomical Twilight 4:20 AM EDT 10:09 PM EDT
Moon 7:21 AM EDT (7/9) 9:08 PM EDT (7/9)
Length of Visible Light 15h 19m
Length of Day
14h 21m
New Moon, 2% of the Moon is Illuminated
Jul 9
New Moon
Jul 15
First Quarter
Jul 22
Full
Jul 29
Last Quarter
Aug 6
New

Hourly Weather History & Observations

Time (EDT) Temp. Heat Index Dew Point Humidity Pressure Visibility Wind Dir Wind Speed Gust Speed Precip Events Conditions
12:56 AM 73.9 °F - 72.0 °F 93% 30.21 in 10.0 mi South 3.5 mph - N/A   Clear
1:56 AM 73.9 °F - 72.0 °F 93% 30.19 in 10.0 mi SSW 3.5 mph - N/A   Clear
2:56 AM 73.9 °F - 72.0 °F 93% 30.18 in 10.0 mi Calm Calm - N/A   Clear
3:56 AM 73.9 °F - 72.0 °F 93% 30.17 in 10.0 mi SSW 3.5 mph - N/A   Clear
4:56 AM 73.9 °F - 73.0 °F 97% 30.17 in 10.0 mi WSW 6.9 mph - N/A   Partly Cloudy
5:56 AM 73.9 °F - 72.0 °F 93% 30.18 in 10.0 mi SW 3.5 mph - N/A   Mostly Cloudy
6:56 AM 73.9 °F - 71.1 °F 91% 30.19 in 9.0 mi Calm Calm - N/A   Mostly Cloudy
7:52 AM 73.4 °F - 71.6 °F 94% 30.19 in 10.0 mi Calm Calm - 0.02 in   Mostly Cloudy
7:56 AM 73.9 °F - 72.0 °F 93% 30.20 in 10.0 mi Calm Calm - 0.02 in   Mostly Cloudy
8:31 AM 73.4 °F - 71.6 °F 94% 30.20 in 8.0 mi Calm Calm - 0.03 in Rain , Thunderstorm Light Thunderstorms and Rain
8:54 AM 73.4 °F - 71.6 °F 94% 30.21 in 10.0 mi SSE 3.5 mph - 0.03 in   Overcast
8:56 AM 73.9 °F - 72.0 °F 93% 30.22 in 10.0 mi Calm Calm - 0.03 in   Overcast
9:56 AM 78.1 °F - 73.9 °F 87% 30.22 in 10.0 mi SSE 4.6 mph - N/A   Mostly Cloudy
10:56 AM 82.0 °F 88.6 °F 75.0 °F 79% 30.22 in 10.0 mi Variable 4.6 mph - N/A   Mostly Cloudy
11:56 AM 82.0 °F 87.9 °F 73.9 °F 76% 30.20 in 10.0 mi South 8.1 mph - N/A   Mostly Cloudy
12:22 PM 82.4 °F 88.2 °F 73.4 °F 74% 30.19 in 10.0 mi South 6.9 mph - N/A   Mostly Cloudy
12:33 PM 84.2 °F 89.6 °F 71.6 °F 66% 30.19 in 10.0 mi South 11.5 mph - N/A   Scattered Clouds
12:56 PM 86.0 °F 92.2 °F 72.0 °F 63% 30.19 in 10.0 mi SSW 13.8 mph 19.6 mph N/A   Clear
1:56 PM 86.0 °F 93.0 °F 73.0 °F 65% 30.18 in 10.0 mi SSW 9.2 mph 17.3 mph N/A   Partly Cloudy
2:56 PM 86.0 °F 93.0 °F 73.0 °F 65% 30.16 in 10.0 mi SW 13.8 mph - N/A   Mostly Cloudy
3:56 PM 86.0 °F 92.2 °F 72.0 °F 63% 30.14 in 10.0 mi South 10.4 mph - N/A   Mostly Cloudy
4:56 PM 84.9 °F 92.1 °F 73.9 °F 69% 30.13 in 10.0 mi South 12.7 mph - N/A   Partly Cloudy
5:26 PM 82.4 °F 88.2 °F 73.4 °F 74% 30.12 in 10.0 mi South 9.2 mph 18.4 mph N/A Thunderstorm Thunderstorm
5:44 PM 82.4 °F 88.2 °F 73.4 °F 74% 30.13 in 10.0 mi South 8.1 mph - N/A   Clear
5:56 PM 82.9 °F 88.8 °F 73.0 °F 72% 30.14 in 10.0 mi South 8.1 mph - N/A   Clear
6:56 PM 82.0 °F 87.4 °F 73.0 °F 74% 30.12 in 10.0 mi South 10.4 mph - N/A   Clear
7:56 PM 81.0 °F 85.8 °F 73.0 °F 77% 30.14 in 10.0 mi South 8.1 mph - N/A   Clear
8:46 PM 78.8 °F - 71.6 °F 78% 30.15 in 10.0 mi South 5.8 mph - N/A   Partly Cloudy
8:56 PM 79.0 °F - 72.0 °F 79% 30.16 in 10.0 mi SSW 6.9 mph - N/A   Scattered Clouds
9:56 PM 78.1 °F - 73.0 °F 84% 30.15 in 10.0 mi South 8.1 mph - N/A   Clear
10:56 PM 78.1 °F - 73.0 °F 84% 30.16 in 10.0 mi SSW 4.6 mph - N/A   Clear
11:56 PM 78.1 °F - 72.0 °F 81% 30.16 in 10.0 mi South 5.8 mph - N/A   Partly Cloudy